| time (UTC) | temp F | wind direction | speed MPH | gust MPH | rain 1hr in | rain 24hr in | rain mn in | humidity % | barometer mb |
| 20260506153122 | 62 | 0 | 0.0 | 0.0 | 0.00 | 0.15 | 0.00 | 97 | 1016.8 |
| 20260506152545 | 62 | 0 | 0.0 | 0.0 | 0.00 | 0.15 | 0.00 | 97 | 1017.0 |
| 20260506152043 | 62 | 0 | 0.0 | 0.0 | 0.00 | 0.15 | 0.00 | 97 | 1017.1 |
| 20260506151551 | 62 | 0 | 0.0 | 0.0 | 0.00 | 0.15 | 0.00 | 97 | 1017.1 |
| 20260506151041 | 62 | 0 | 0.0 | 0.0 | 0.00 | 0.15 | 0.00 | 97 | 1017.1 |
| 20260506150541 | 62 | 0 | 0.0 | 0.0 | 0.00 | 0.15 | 0.00 | 97 | 1017.1 |
| 20260506150055 | 62 | 0 | 0.0 | 0.0 | 0.00 | 0.15 | 0.00 | 97 | 1017.2 |
| 20260506145546 | 62 | 0 | 0.0 | 0.0 | 0.00 | 0.15 | 0.00 | 97 | 1017.2 |
| 20260506145041 | 62 | 0 | 0.0 | 0.0 | 0.00 | 0.15 | 0.00 | 97 | 1017.2 |
| 20260506144552 | 62 | 0 | 0.0 | 0.0 | 0.00 | 0.15 | 0.00 | 97 | 1017.3 |
| 20260506144043 | 62 | 0 | 0.0 | 0.0 | 0.00 | 0.15 | 0.00 | 97 | 1017.3 |
| 20260506143542 | 62 | 0 | 0.0 | 0.0 | 0.00 | 0.15 | 0.00 | 97 | 1017.4 |
| 20260506143053 | 62 | 0 | 0.0 | 0.0 | 0.00 | 0.15 | 0.00 | 97 | 1017.5 |
| 20260506142545 | 62 | 0 | 0.0 | 0.0 | 0.00 | 0.15 | 0.00 | 96 | 1017.5 |
| 20260506142042 | 62 | 0 | 0.0 | 0.0 | 0.00 | 0.15 | 0.00 | 96 | 1017.5 |
| 20260506141554 | 63 | 0 | 0.0 | 0.0 | 0.00 | 0.15 | 0.00 | 96 | 1017.5 |
| 20260506141044 | 63 | 0 | 0.0 | 0.0 | 0.00 | 0.15 | 0.00 | 97 | 1017.5 |
| 20260506140547 | 63 | 0 | 0.0 | 0.0 | 0.00 | 0.15 | 0.00 | 97 | 1017.7 |
| 20260506140050 | 63 | 0 | 0.0 | 0.0 | 0.00 | 0.15 | 0.00 | 96 | 1017.7 |
| 20260506135541 | 63 | 0 | 0.0 | 0.0 | 0.00 | 0.15 | 0.15 | 96 | 1017.7 |
| 20260506135041 | 63 | 0 | 0.0 | 0.0 | 0.00 | 0.15 | 0.15 | 96 | 1017.7 |
| 20260506134600 | 63 | 0 | 0.0 | 0.0 | 0.00 | 0.15 | 0.15 | 96 | 1017.8 |
| 20260506134045 | 63 | 0 | 0.0 | 0.0 | 0.00 | 0.15 | 0.15 | 96 | 1017.7 |
| 20260506133542 | 63 | 0 | 0.0 | 0.0 | 0.00 | 0.15 | 0.15 | 96 | 1017.7 |
| 20260506133053 | 63 | 0 | 0.0 | 0.0 | 0.00 | 0.15 | 0.15 | 96 | 1017.7 |
| 20260506132545 | 63 | 0 | 0.0 | 0.0 | 0.00 | 0.15 | 0.15 | 96 | 1017.8 |
| 20260506132041 | 63 | 0 | 0.0 | 0.0 | 0.00 | 0.15 | 0.15 | 96 | 1017.9 |
| 20260506131601 | 63 | 0 | 0.0 | 0.0 | 0.00 | 0.15 | 0.15 | 96 | 1017.8 |
| 20260506131041 | 63 | 0 | 0.0 | 0.0 | 0.00 | 0.15 | 0.15 | 96 | 1017.9 |
| 20260506130541 | 63 | 0 | 0.0 | 0.0 | 0.00 | 0.15 | 0.15 | 96 | 1018.0 |
| 20260506130056 | 63 | 0 | 0.0 | 0.0 | 0.00 | 0.15 | 0.15 | 96 | 1018.0 |
| 20260506125543 | 63 | 0 | 0.0 | 0.0 | 0.00 | 0.15 | 0.15 | 96 | 1018.0 |
| 20260506125041 | 63 | 0 | 0.0 | 0.0 | 0.00 | 0.15 | 0.15 | 95 | 1018.0 |
| 20260506124555 | 63 | 0 | 0.0 | 0.0 | 0.00 | 0.15 | 0.15 | 96 | 1018.1 |
| 20260506124041 | 63 | 0 | 0.0 | 0.0 | 0.00 | 0.15 | 0.15 | 95 | 1018.2 |
| 20260506123542 | 63 | 0 | 0.0 | 0.0 | 0.00 | 0.15 | 0.15 | 95 | 1018.1 |
| 20260506123107 | 63 | 0 | 0.0 | 0.0 | 0.00 | 0.15 | 0.15 | 95 | 1018.1 |
| 20260506122542 | 64 | 0 | 0.0 | 0.0 | 0.00 | 0.15 | 0.15 | 95 | 1018.2 |
| 20260506122041 | 64 | 0 | 0.0 | 0.0 | 0.00 | 0.15 | 0.15 | 95 | 1018.2 |
| 20260506121557 | 64 | 0 | 0.0 | 0.0 | 0.00 | 0.15 | 0.15 | 95 | 1018.3 |
| 20260506121041 | 64 | 0 | 0.0 | 0.0 | 0.00 | 0.15 | 0.15 | 94 | 1018.4 |
| 20260506120541 | 64 | 0 | 0.0 | 0.0 | 0.00 | 0.15 | 0.15 | 94 | 1018.3 |
| 20260506120053 | 64 | 0 | 0.0 | 0.0 | 0.00 | 0.15 | 0.15 | 93 | 1018.3 |
| 20260506115543 | 65 | 0 | 0.0 | 0.0 | 0.00 | 0.15 | 0.15 | 93 | 1018.3 |
| 20260506115044 | 65 | 0 | 0.0 | 0.0 | 0.00 | 0.15 | 0.15 | 92 | 1018.3 |
| 20260506114552 | 65 | 0 | 0.0 | 1.0 | 0.00 | 0.15 | 0.15 | 92 | 1018.4 |
| 20260506114043 | 66 | 0 | 0.0 | 2.0 | 0.00 | 0.15 | 0.15 | 91 | 1018.4 |
| 20260506113545 | 66 | 0 | 0.0 | 2.0 | 0.00 | 0.15 | 0.15 | 91 | 1018.3 |
| 20260506113056 | 66 | 147 | 0.0 | 3.0 | 0.00 | 0.15 | 0.15 | 91 | 1018.3 |
| 20260506112545 | 66 | 0 | 0.0 | 3.0 | 0.00 | 0.15 | 0.15 | 92 | 1018.4 |
| 20260506112044 | 66 | 0 | 0.0 | 2.0 | 0.00 | 0.15 | 0.15 | 91 | 1018.5 |
| 20260506111548 | 66 | 0 | 0.0 | 2.0 | 0.00 | 0.15 | 0.15 | 91 | 1018.4 |
| 20260506111043 | 67 | 0 | 0.0 | 1.0 | 0.00 | 0.15 | 0.15 | 90 | 1018.5 |
| 20260506110544 | 67 | 0 | 0.0 | 2.0 | 0.00 | 0.15 | 0.15 | 89 | 1018.4 |
| 20260506105543 | 68 | 112 | 0.0 | 4.0 | 0.00 | 0.15 | 0.15 | 89 | 1018.3 |
| 20260506105044 | 68 | 108 | 1.0 | 4.0 | 0.00 | 0.15 | 0.15 | 90 | 1018.3 |
| 20260506104557 | 68 | 153 | 0.0 | 4.0 | 0.00 | 0.15 | 0.15 | 90 | 1018.4 |
| 20260506104045 | 68 | 110 | 1.0 | 4.0 | 0.00 | 0.15 | 0.15 | 90 | 1018.5 |
| 20260506103544 | 67 | 105 | 1.0 | 4.0 | 0.00 | 0.15 | 0.15 | 90 | 1018.4 |
| 20260506103056 | 67 | 100 | 1.0 | 4.0 | 0.00 | 0.15 | 0.15 | 91 | 1018.5 |
| 20260506102546 | 67 | 87 | 0.0 | 3.0 | 0.00 | 0.15 | 0.15 | 91 | 1018.5 |
| 20260506102048 | 67 | 98 | 0.0 | 3.0 | 0.00 | 0.15 | 0.15 | 91 | 1018.6 |
| 20260506101609 | 67 | 0 | 0.0 | 2.0 | 0.00 | 0.15 | 0.15 | 90 | 1018.5 |
| 20260506101044 | 67 | 0 | 0.0 | 2.0 | 0.00 | 0.15 | 0.15 | 90 | 1018.5 |
| 20260506100546 | 67 | 0 | 0.0 | 2.0 | 0.00 | 0.15 | 0.15 | 90 | 1018.4 |
| 20260506100050 | 67 | 110 | 0.0 | 2.0 | 0.00 | 0.15 | 0.15 | 90 | 1018.5 |
| 20260506095545 | 67 | 0 | 0.0 | 1.0 | 0.00 | 0.15 | 0.15 | 90 | 1018.5 |
| 20260506095044 | 68 | 0 | 0.0 | 1.0 | 0.00 | 0.15 | 0.15 | 90 | 1018.4 |
| 20260506094558 | 68 | 0 | 0.0 | 1.0 | 0.00 | 0.15 | 0.15 | 90 | 1018.5 |
| 20260506094043 | 68 | 0 | 0.0 | 3.0 | 0.00 | 0.15 | 0.15 | 90 | 1018.4 |
| 20260506093547 | 68 | 118 | 0.0 | 3.0 | 0.00 | 0.15 | 0.15 | 90 | 1018.4 |
| 20260506093058 | 68 | 0 | 0.0 | 3.0 | 0.00 | 0.15 | 0.15 | 90 | 1018.5 |
| 20260506092543 | 68 | 0 | 0.0 | 2.0 | 0.00 | 0.15 | 0.15 | 91 | 1018.5 |
| 20260506092046 | 67 | 0 | 0.0 | 1.0 | 0.00 | 0.15 | 0.15 | 91 | 1018.5 |
| 20260506091549 | 67 | 0 | 0.0 | 2.0 | 0.00 | 0.15 | 0.15 | 91 | 1018.5 |
| 20260506091044 | 67 | 23 | 0.0 | 2.0 | 0.00 | 0.15 | 0.15 | 91 | 1018.5 |
| 20260506090544 | 67 | 98 | 0.0 | 1.0 | 0.00 | 0.15 | 0.15 | 91 | 1018.4 |
| 20260506090100 | 67 | 0 | 0.0 | 0.0 | 0.00 | 0.15 | 0.15 | 90 | 1018.3 |
| 20260506085543 | 68 | 0 | 0.0 | 1.0 | 0.00 | 0.15 | 0.15 | 90 | 1018.3 |
| 20260506085043 | 68 | 0 | 0.0 | 1.0 | 0.00 | 0.15 | 0.15 | 89 | 1018.2 |
| 20260506084616 | 68 | 0 | 0.0 | 1.0 | 0.00 | 0.15 | 0.15 | 89 | 1018.2 |
| 20260506084043 | 68 | 0 | 0.0 | 1.0 | 0.00 | 0.15 | 0.15 | 89 | 1018.0 |
| 20260506083542 | 69 | 0 | 0.0 | 2.0 | 0.00 | 0.15 | 0.15 | 88 | 1018.0 |
| 20260506083049 | 69 | 0 | 0.0 | 2.0 | 0.00 | 0.15 | 0.15 | 88 | 1017.8 |
| 20260506082543 | 69 | 76 | 0.0 | 2.0 | 0.00 | 0.15 | 0.15 | 88 | 1017.8 |
| 20260506082044 | 69 | 0 | 0.0 | 2.0 | 0.00 | 0.15 | 0.15 | 88 | 1017.6 |
| 20260506081552 | 69 | 0 | 0.0 | 2.0 | 0.00 | 0.15 | 0.15 | 88 | 1017.5 |
| 20260506081047 | 69 | 0 | 0.0 | 2.0 | 0.00 | 0.15 | 0.15 | 88 | 1017.5 |
| 20260506080544 | 69 | 82 | 0.0 | 2.0 | 0.00 | 0.15 | 0.15 | 88 | 1017.5 |
| 20260506073050 | 70 | 0 | 0.0 | 1.0 | 0.00 | 0.15 | 0.15 | 86 | 1017.1 |
| 20260506072543 | 70 | 0 | 0.0 | 1.0 | 0.00 | 0.15 | 0.15 | 86 | 1017.2 |
| 20260506072046 | 70 | 0 | 0.0 | 2.0 | 0.00 | 0.15 | 0.15 | 86 | 1017.1 |
| 20260506071552 | 70 | 0 | 0.0 | 2.0 | 0.00 | 0.15 | 0.15 | 85 | 1017.0 |
| 20260506071044 | 71 | 0 | 0.0 | 2.0 | 0.00 | 0.15 | 0.15 | 85 | 1017.0 |
| 20260506070543 | 71 | 109 | 0.0 | 4.0 | 0.00 | 0.15 | 0.15 | 84 | 1016.8 |
| 20260506062044 | 73 | 87 | 4.0 | 8.0 | 0.00 | 0.15 | 0.15 | 81 | 1016.4 |
| 20260506061552 | 73 | 122 | 3.0 | 8.0 | 0.00 | 0.15 | 0.15 | 81 | 1016.4 |
| 20260506061043 | 73 | 88 | 2.0 | 9.0 | 0.00 | 0.15 | 0.15 | 81 | 1016.4 |
| 20260506060545 | 73 | 143 | 2.0 | 9.0 | 0.00 | 0.15 | 0.15 | 82 | 1016.4 |
| 20260506051043 | 74 | 132 | 2.0 | 10.0 | 0.00 | 0.15 | 0.15 | 80 | 1016.6 |
| 20260506050542 | 74 | 116 | 2.0 | 10.0 | 0.00 | 0.15 | 0.15 | 80 | 1016.6 |
| 20260506050113 | 74 | 149 | 5.0 | 9.0 | 0.00 | 0.15 | 0.15 | 79 | 1016.6 |
| 20260506045043 | 74 | 75 | 2.0 | 8.0 | 0.00 | 0.15 | 0.15 | 78 | 1016.5 |
| 20260506044554 | 75 | 179 | 3.0 | 11.0 | 0.00 | 0.15 | 0.15 | 78 | 1016.5 |
| 20260506044043 | 75 | 163 | 4.0 | 11.0 | 0.00 | 0.15 | 0.15 | 77 | 1016.5 |
| 20260506043543 | 75 | 188 | 2.0 | 7.0 | 0.00 | 0.15 | 0.15 | 79 | 1016.4 |
| 20260506043054 | 75 | 94 | 2.0 | 7.0 | 0.00 | 0.15 | 0.15 | 80 | 1016.5 |
| 20260506042543 | 74 | 152 | 3.0 | 10.0 | 0.00 | 0.15 | 0.15 | 80 | 1016.6 |
| 20260506042046 | 75 | 138 | 2.0 | 10.0 | 0.00 | 0.15 | 0.15 | 80 | 1016.7 |
| 20260506041603 | 75 | 147 | 4.0 | 10.0 | 0.00 | 0.15 | 0.15 | 78 | 1016.7 |
| 20260506041043 | 75 | 165 | 2.0 | 8.0 | 0.00 | 0.15 | 0.15 | 80 | 1016.7 |
| 20260506040542 | 75 | 163 | 3.0 | 6.0 | 0.00 | 0.15 | 0.15 | 80 | 1016.7 |
| 20260506040057 | 75 | 100 | 2.0 | 9.0 | 0.00 | 0.15 | 0.15 | 79 | 1016.7 |
| 20260506035544 | 75 | 179 | 3.0 | 11.0 | 0.00 | 0.15 | 0.15 | 79 | 1016.8 |
| 20260506035043 | 75 | 172 | 3.0 | 12.0 | 0.00 | 0.15 | 0.15 | 79 | 1016.7 |
| 20260506034553 | 75 | 166 | 1.0 | 12.0 | 0.00 | 0.15 | 0.15 | 82 | 1016.8 |
| 20260506034043 | 74 | 153 | 5.0 | 12.0 | 0.00 | 0.15 | 0.15 | 80 | 1016.9 |
| 20260506033543 | 75 | 140 | 1.0 | 6.0 | 0.00 | 0.15 | 0.15 | 80 | 1016.9 |
| 20260506033053 | 74 | 184 | 2.0 | 12.0 | 0.00 | 0.15 | 0.15 | 80 | 1016.9 |
| 20260506032545 | 74 | 119 | 4.0 | 12.0 | 0.00 | 0.15 | 0.15 | 79 | 1016.9 |
| 20260506032043 | 75 | 187 | 4.0 | 9.0 | 0.00 | 0.15 | 0.15 | 79 | 1017.0 |
| 20260506031549 | 75 | 89 | 4.0 | 9.0 | 0.00 | 0.15 | 0.15 | 78 | 1017.0 |
| 20260506031044 | 76 | 172 | 2.0 | 6.0 | 0.00 | 0.15 | 0.15 | 77 | 1017.0 |
| 20260506030545 | 76 | 200 | 3.0 | 5.0 | 0.00 | 0.15 | 0.15 | 76 | 1017.0 |
| 20260506030048 | 76 | 205 | 1.0 | 6.0 | 0.00 | 0.15 | 0.15 | 76 | 1016.9 |
| 20260506025544 | 76 | 207 | 2.0 | 6.0 | 0.00 | 0.15 | 0.15 | 76 | 1017.0 |
| 20260506025043 | 76 | 179 | 1.0 | 5.0 | 0.00 | 0.15 | 0.15 | 76 | 1017.0 |
| 20260506024556 | 76 | 136 | 2.0 | 7.0 | 0.00 | 0.15 | 0.15 | 75 | 1017.2 |
| 20260506024044 | 76 | 119 | 3.0 | 7.0 | 0.00 | 0.15 | 0.15 | 76 | 1017.1 |
| 20260506023543 | 76 | 183 | 2.0 | 5.0 | 0.00 | 0.15 | 0.15 | 76 | 1017.2 |
| 20260506023105 | 76 | 127 | 1.0 | 7.0 | 0.00 | 0.15 | 0.15 | 77 | 1017.2 |
| 20260506022542 | 76 | 203 | 3.0 | 7.0 | 0.00 | 0.15 | 0.15 | 76 | 1017.2 |
| 20260506022046 | 76 | 150 | 2.0 | 5.0 | 0.00 | 0.15 | 0.15 | 75 | 1017.2 |
| 20260506021552 | 76 | 195 | 3.0 | 5.0 | 0.00 | 0.15 | 0.15 | 76 | 1017.4 |
| 20260506021045 | 76 | 122 | 3.0 | 8.0 | 0.00 | 0.15 | 0.15 | 77 | 1017.4 |
| 20260506020543 | 76 | 150 | 4.0 | 8.0 | 0.00 | 0.15 | 0.15 | 77 | 1017.5 |
| 20260506020054 | 76 | 0 | 1.0 | 3.0 | 0.00 | 0.15 | 0.15 | 78 | 1017.5 |
| 20260506015543 | 76 | 105 | 1.0 | 4.0 | 0.00 | 0.15 | 0.15 | 77 | 1017.6 |
| 20260506015043 | 76 | 0 | 2.0 | 4.0 | 0.00 | 0.15 | 0.15 | 77 | 1017.7 |
| 20260506014549 | 76 | 154 | 1.0 | 4.0 | 0.00 | 0.15 | 0.15 | 77 | 1017.8 |
| 20260506014046 | 76 | 0 | 1.0 | 7.0 | 0.00 | 0.15 | 0.15 | 78 | 1017.9 |
| 20260506013543 | 75 | 203 | 3.0 | 7.0 | 0.00 | 0.15 | 0.15 | 79 | 1018.0 |
| 20260506013056 | 75 | 114 | 2.0 | 6.0 | 0.00 | 0.15 | 0.15 | 77 | 1017.9 |
| 20260506012546 | 76 | 245 | 2.0 | 6.0 | 0.00 | 0.15 | 0.15 | 78 | 1018.0 |
| 20260506012046 | 76 | 224 | 2.0 | 6.0 | 0.00 | 0.15 | 0.15 | 78 | 1018.1 |
| 20260506011552 | 77 | 204 | 3.0 | 5.0 | 0.00 | 0.15 | 0.15 | 78 | 1018.1 |
| 20260506011046 | 76 | 278 | 1.0 | 5.0 | 0.00 | 0.15 | 0.15 | 80 | 1018.1 |
| 20260506010543 | 76 | 209 | 2.0 | 5.0 | 0.00 | 0.15 | 0.15 | 79 | 1018.2 |
| 20260506010051 | 76 | 137 | 1.0 | 6.0 | 0.00 | 0.15 | 0.15 | 79 | 1018.2 |
| 20260506005543 | 77 | 134 | 0.0 | 6.0 | 0.00 | 0.15 | 0.15 | 77 | 1018.3 |
| 20260506005044 | 77 | 169 | 0.0 | 4.0 | 0.00 | 0.15 | 0.15 | 82 | 1018.3 |
| 20260506004600 | 75 | 210 | 1.0 | 4.0 | 0.00 | 0.15 | 0.15 | 81 | 1018.3 |
| 20260506004042 | 75 | 0 | 1.0 | 4.0 | 0.00 | 0.15 | 0.15 | 81 | 1018.4 |
| 20260506003544 | 74 | 251 | 2.0 | 4.0 | 0.00 | 0.15 | 0.15 | 82 | 1018.5 |
| 20260506003053 | 74 | 0 | 0.0 | 3.0 | 0.00 | 0.15 | 0.15 | 84 | 1018.5 |
| 20260506002542 | 74 | 197 | 0.0 | 5.0 | 0.00 | 0.15 | 0.15 | 84 | 1018.7 |
| 20260506002044 | 74 | 160 | 2.0 | 5.0 | 0.00 | 0.15 | 0.15 | 83 | 1018.6 |
| 20260506001556 | 74 | 146 | 1.0 | 3.0 | 0.00 | 0.15 | 0.15 | 84 | 1018.5 |
| 20260506001043 | 74 | 0 | 0.0 | 1.0 | 0.00 | 0.15 | 0.15 | 86 | 1018.6 |
| 20260506000548 | 73 | 0 | 0.0 | 7.0 | 0.00 | 0.15 | 0.15 | 86 | 1018.5 |
| 20260505235542 | 73 | 0 | 2.0 | 7.0 | 0.00 | 0.15 | 0.15 | 86 | 1018.6 |
| 20260505235042 | 73 | 186 | 3.0 | 7.0 | 0.00 | 0.15 | 0.15 | 86 | 1018.7 |
| 20260505234555 | 72 | 310 | 1.0 | 6.0 | 0.00 | 0.15 | 0.15 | 87 | 1018.7 |
| 20260505234044 | 72 | 188 | 2.0 | 6.0 | 0.00 | 0.15 | 0.15 | 86 | 1018.8 |
| 20260505233548 | 72 | 0 | 1.0 | 5.0 | 0.00 | 0.15 | 0.15 | 86 | 1018.8 |
| 20260505233056 | 72 | 188 | 0.0 | 3.0 | 0.00 | 0.15 | 0.15 | 87 | 1018.8 |
| 20260505232544 | 72 | 0 | 0.0 | 3.0 | 0.00 | 0.15 | 0.15 | 87 | 1018.8 |
| 20260505232050 | 72 | 105 | 0.0 | 3.0 | 0.00 | 0.15 | 0.15 | 89 | 1018.8 |
| 20260505231554 | 71 | 0 | 0.0 | 3.0 | 0.00 | 0.15 | 0.15 | 89 | 1018.8 |
| 20260505231044 | 71 | 203 | 0.0 | 4.0 | 0.00 | 0.15 | 0.15 | 90 | 1018.9 |
| 20260505230546 | 71 | 98 | 2.0 | 6.0 | 0.00 | 0.15 | 0.15 | 90 | 1018.9 |
| 20260505230112 | 70 | 188 | 1.0 | 6.0 | 0.00 | 0.15 | 0.15 | 91 | 1018.9 |
| 20260505225544 | 70 | 176 | 2.0 | 3.0 | 0.00 | 0.15 | 0.15 | 91 | 1018.9 |
| 20260505225043 | 70 | 191 | 1.0 | 3.0 | 0.00 | 0.15 | 0.15 | 92 | 1018.9 |
| 20260505224552 | 70 | 182 | 1.0 | 3.0 | 0.00 | 0.15 | 0.15 | 92 | 1018.9 |
| 20260505224044 | 70 | 114 | 1.0 | 1.0 | 0.00 | 0.15 | 0.15 | 93 | 1018.9 |
| 20260505223545 | 70 | 92 | 0.0 | 2.0 | 0.00 | 0.15 | 0.15 | 97 | 1018.8 |
| 20260505223058 | 69 | 359 | 0.0 | 2.0 | 0.00 | 0.15 | 0.15 | 97 | 1019.0 |
| 20260505222544 | 69 | 112 | 0.0 | 1.0 | 0.00 | 0.15 | 0.15 | 97 | 1018.9 |
| 20260505222047 | 69 | 84 | 0.0 | 1.0 | 0.00 | 0.15 | 0.15 | 98 | 1018.8 |
| 20260505221559 | 68 | 84 | 0.0 | 1.0 | 0.00 | 0.15 | 0.15 | 98 | 1018.8 |
| 20260505221044 | 68 | 0 | 0.0 | 1.0 | 0.00 | 0.15 | 0.15 | 98 | 1018.8 |
| 20260505220544 | 68 | 0 | 0.0 | 1.0 | 0.00 | 0.15 | 0.15 | 99 | 1018.8 |
| 20260505220055 | 67 | 83 | 0.0 | 1.0 | 0.00 | 0.15 | 0.15 | 98 | 1018.7 |
| 20260505215544 | 67 | 0 | 0.0 | 1.0 | 0.00 | 0.15 | 0.15 | 98 | 1018.7 |
| 20260505215044 | 66 | 84 | 0.0 | 1.0 | 0.00 | 0.15 | 0.15 | 98 | 1018.7 |
| 20260505214549 | 66 | 0 | 0.0 | 1.0 | 0.00 | 0.15 | 0.15 | 98 | 1018.8 |
| 20260505214044 | 66 | 0 | 0.0 | 1.0 | 0.00 | 0.15 | 0.15 | 98 | 1018.6 |
| 20260505213543 | 66 | 0 | 0.0 | 1.0 | 0.00 | 0.15 | 0.15 | 98 | 1018.6 |
| 20260505213054 | 66 | 0 | 0.0 | 1.0 | 0.00 | 0.15 | 0.15 | 98 | 1018.6 |
| 20260505212547 | 66 | 0 | 0.0 | 1.0 | 0.00 | 0.15 | 0.15 | 98 | 1018.6 |
| 20260505212044 | 66 | 0 | 0.0 | 1.0 | 0.00 | 0.15 | 0.15 | 99 | 1018.6 |
| 20260505211601 | 66 | 0 | 0.0 | 0.0 | 0.00 | 0.15 | 0.15 | 99 | 1018.6 |
| 20260505211044 | 65 | 0 | 0.0 | 0.0 | 0.00 | 0.15 | 0.15 | 98 | 1018.6 |
| 20260505210543 | 65 | 0 | 0.0 | 0.0 | 0.00 | 0.15 | 0.15 | 98 | 1018.6 |
| 20260505210056 | 64 | 0 | 0.0 | 0.0 | 0.00 | 0.15 | 0.15 | 98 | 1018.5 |
| 20260505205544 | 64 | 0 | 0.0 | 0.0 | 0.00 | 0.15 | 0.15 | 98 | 1018.5 |
| 20260505205045 | 64 | 0 | 0.0 | 1.0 | 0.00 | 0.14 | 0.14 | 98 | 1018.4 |
| 20260505204552 | 64 | 0 | 0.0 | 1.0 | 0.00 | 0.14 | 0.14 | 98 | 1018.3 |
| 20260505204044 | 64 | 0 | 0.0 | 0.0 | 0.00 | 0.14 | 0.14 | 98 | 1018.1 |
| 20260505203547 | 64 | 0 | 0.0 | 0.0 | 0.00 | 0.14 | 0.14 | 98 | 1018.2 |
| 20260505203102 | 64 | 0 | 0.0 | 0.0 | 0.00 | 0.14 | 0.14 | 98 | 1018.0 |
| 20260505202544 | 64 | 0 | 0.0 | 0.0 | 0.00 | 0.14 | 0.14 | 98 | 1017.9 |
| 20260505202042 | 64 | 0 | 0.0 | 0.0 | 0.00 | 0.14 | 0.14 | 98 | 1017.8 |
| 20260505201555 | 64 | 0 | 0.0 | 0.0 | 0.00 | 0.14 | 0.14 | 98 | 1017.8 |
| 20260505201045 | 64 | 0 | 0.0 | 0.0 | 0.00 | 0.14 | 0.14 | 98 | 1017.7 |
| 20260505200543 | 64 | 0 | 0.0 | 0.0 | 0.00 | 0.14 | 0.14 | 98 | 1017.6 |
| 20260505200107 | 64 | 0 | 0.0 | 1.0 | 0.00 | 0.14 | 0.14 | 97 | 1017.7 |
| 20260505195548 | 64 | 0 | 0.0 | 1.0 | 0.00 | 0.14 | 0.14 | 98 | 1017.6 |
| 20260505195047 | 64 | 0 | 0.0 | 0.0 | 0.00 | 0.14 | 0.14 | 97 | 1017.8 |
| 20260505194549 | 64 | 0 | 0.0 | 0.0 | 0.00 | 0.14 | 0.14 | 97 | 1017.7 |
| 20260505194043 | 64 | 0 | 0.0 | 0.0 | 0.00 | 0.14 | 0.14 | 97 | 1017.6 |
| 20260505193542 | 65 | 0 | 0.0 | 0.0 | 0.00 | 0.14 | 0.14 | 97 | 1017.5 |
| 20260505193102 | 65 | 0 | 0.0 | 1.0 | 0.00 | 0.14 | 0.14 | 97 | 1017.6 |
| 20260505192546 | 65 | 0 | 0.0 | 1.0 | 0.00 | 0.14 | 0.14 | 97 | 1017.5 |
| 20260505192042 | 65 | 0 | 0.0 | 1.0 | 0.00 | 0.14 | 0.14 | 98 | 1017.5 |
| 20260505191607 | 65 | 0 | 0.0 | 1.0 | 0.00 | 0.14 | 0.14 | 97 | 1017.6 |
| 20260505191046 | 65 | 0 | 0.0 | 1.0 | 0.00 | 0.14 | 0.14 | 98 | 1017.7 |
| 20260505190544 | 65 | 0 | 0.0 | 1.0 | 0.00 | 0.14 | 0.14 | 98 | 1017.6 |
| 20260505190051 | 65 | 0 | 0.0 | 0.0 | 0.00 | 0.14 | 0.14 | 98 | 1017.6 |
| 20260505185543 | 65 | 0 | 0.0 | 0.0 | 0.00 | 0.14 | 0.14 | 98 | 1017.7 |
| 20260505185043 | 65 | 0 | 0.0 | 0.0 | 0.00 | 0.14 | 0.14 | 98 | 1017.7 |
| 20260505184551 | 65 | 0 | 0.0 | 0.0 | 0.00 | 0.14 | 0.14 | 97 | 1017.6 |
| 20260505184042 | 65 | 0 | 0.0 | 0.0 | 0.00 | 0.14 | 0.14 | 98 | 1017.7 |
| 20260505183541 | 65 | 0 | 0.0 | 0.0 | 0.00 | 0.14 | 0.14 | 98 | 1017.5 |
| 20260505183050 | 65 | 0 | 0.0 | 0.0 | 0.00 | 0.14 | 0.14 | 98 | 1017.6 |
| 20260505182544 | 65 | 0 | 0.0 | 0.0 | 0.00 | 0.14 | 0.14 | 97 | 1017.4 |
| 20260505182042 | 65 | 0 | 0.0 | 0.0 | 0.00 | 0.14 | 0.14 | 97 | 1017.5 |
| 20260505181559 | 65 | 0 | 0.0 | 0.0 | 0.00 | 0.14 | 0.14 | 97 | 1017.5 |
| 20260505181043 | 65 | 0 | 0.0 | 0.0 | 0.00 | 0.14 | 0.14 | 97 | 1017.4 |
| 20260505180541 | 65 | 0 | 0.0 | 0.0 | 0.00 | 0.14 | 0.14 | 97 | 1017.4 |
| 20260505180053 | 65 | 0 | 0.0 | 0.0 | 0.00 | 0.14 | 0.14 | 97 | 1017.5 |
| 20260505175542 | 65 | 0 | 0.0 | 1.0 | 0.00 | 0.15 | 0.14 | 97 | 1017.3 |
| 20260505175046 | 65 | 0 | 0.0 | 1.0 | 0.00 | 0.15 | 0.14 | 97 | 1017.4 |
| 20260505174551 | 65 | 236 | 0.0 | 1.0 | 0.01 | 0.15 | 0.14 | 97 | 1017.4 |
| 20260505174042 | 65 | 0 | 0.0 | 1.0 | 0.01 | 0.15 | 0.14 | 97 | 1017.3 |
| 20260505173543 | 65 | 0 | 0.0 | 1.0 | 0.01 | 0.15 | 0.14 | 97 | 1017.3 |
| 20260505173056 | 65 | 0 | 0.0 | 1.0 | 0.01 | 0.15 | 0.14 | 97 | 1017.4 |
| 20260505172543 | 65 | 0 | 0.0 | 1.0 | 0.01 | 0.15 | 0.14 | 97 | 1017.3 |
| 20260505172043 | 65 | 0 | 0.0 | 0.0 | 0.01 | 0.15 | 0.14 | 97 | 1017.3 |
| 20260505171556 | 65 | 0 | 0.0 | 1.0 | 0.01 | 0.15 | 0.14 | 97 | 1017.3 |
| 20260505171044 | 65 | 0 | 0.0 | 1.0 | 0.01 | 0.15 | 0.14 | 97 | 1017.4 |
| 20260505170544 | 65 | 0 | 0.0 | 1.0 | 0.01 | 0.15 | 0.14 | 97 | 1017.5 |
| 20260505170055 | 65 | 0 | 0.0 | 0.0 | 0.02 | 0.15 | 0.14 | 97 | 1017.6 |
| 20260505165545 | 65 | 0 | 0.0 | 0.0 | 0.02 | 0.15 | 0.14 | 97 | 1017.7 |
| 20260505165044 | 65 | 0 | 0.0 | 0.0 | 0.02 | 0.14 | 0.14 | 97 | 1017.7 |
| 20260505164554 | 65 | 0 | 0.0 | 0.0 | 0.02 | 0.14 | 0.13 | 97 | 1017.8 |
| 20260505164042 | 65 | 0 | 0.0 | 0.0 | 0.04 | 0.14 | 0.13 | 97 | 1017.8 |
| 20260505163544 | 65 | 338 | 0.0 | 0.0 | 0.10 | 0.14 | 0.13 | 97 | 1017.9 |
| 20260505163059 | 66 | 0 | 0.0 | 0.0 | 0.12 | 0.14 | 0.13 | 96 | 1017.9 |
| 20260505162543 | 66 | 0 | 0.0 | 1.0 | 0.13 | 0.14 | 0.13 | 96 | 1017.9 |
| 20260505162044 | 66 | 0 | 0.0 | 1.0 | 0.13 | 0.14 | 0.13 | 96 | 1017.9 |
| 20260505161551 | 66 | 342 | 0.0 | 1.0 | 0.13 | 0.14 | 0.13 | 96 | 1017.9 |
| 20260505161045 | 66 | 0 | 0.0 | 1.0 | 0.13 | 0.14 | 0.13 | 96 | 1018.0 |
| 20260505160544 | 66 | 0 | 0.0 | 1.0 | 0.13 | 0.14 | 0.13 | 96 | 1018.0 |